Tracking 19575 objects as of 18-Feb-2019
HD Live streaming from Space Station
objects crossing your sky now

OPS 5712 (P/L 152)

Track OPS 5712 (P/L 152) now!
10-day predictions
OPS 5712 (P/L 152) is classified as:


NORAD ID: 2873
Int'l Code: 1967-053G
Perigee: 904.0 km
Apogee: 913.1 km
Inclination: 70.0 °
Period: 103.0 minutes
Semi major axis: 7279 km
RCS: 0.648 m2 (medium)
Launch date: May 31, 1967
Source: United States (US)
Launch site: AIR FORCE WESTERN TEST RANGE (AFWTR)
aabbcc
Your satellite tracking list
Your tracking list is empty




NASA's NSSDC Master Catalog

Two Line Element Set (TLE):
1  2873U 67053G   19049.18832139 -.00000009  00000-0  31409-4 0  9990
2  2873  69.9746  37.4702 0006251  14.1357  62.0552 13.97808045635145
Source of the keplerian elements: AFSPC